User: anonymous   Login
Location: Celina Division
(33.3022°N, 96.7580°W)
Time: 09:17:47
(UTC+00:00)
Language:

FENGYUN 1C DEB - Orbit

View from above orbital plane
View from above orbital plane
View from above satellite
View from above satellite

Ground track
Ground track

The orbit data is extracted from the following two-line orbital elements,

1 33719U 99025DHG 23333.08591709  .00003191  00000-0  15623-2 0  9994
2 33719  98.8411  24.4860 0032662  64.2539 326.8786 14.18291470814389
Epoch (UTC): 29 November 2023 02:03:43
Eccentricity: 0.0032662
inclination: 98.8411°
perigee height: 807 km
apogee height: 854 km
right ascension of ascending node: 24.4860°
argument of perigee: 64.2539°
revolutions per day: 14.18291470
mean anomaly at epoch: 326.8786°
orbit number at epoch: 81438

The dashed part of the orbit path shows where the satellite is in the earth's shadow,  

DLR